This is the latest recevied weather packets stored in our database for station/object N4NVD-13. If no packets are shown the sender has not sent any weather packets the latest 10 day(s).
| Time | Temp. | Humidity | Pressure | Rain* | Wind** | Luminosity | Snow |
|---|---|---|---|---|---|---|---|
| 1778004667 | 26.67° C | 85% | 1007.6 hPa | 0 mm | - | 333 W/m² | - |
| 1778004363 | 27.22° C | 85% | 1007.5 hPa | 0 mm | - | 283 W/m² | - |
| 1778004061 | 27.22° C | 85% | 1007.6 hPa | 0 mm | - | 368 W/m² | - |
| 1778003756 | 26.67° C | 88% | 1007.7 hPa | 0 mm | - | 424 W/m² | - |
| 1778003453 | 26.67° C | 86% | 1007.7 hPa | 0 mm | - | 290 W/m² | - |
| 1778003150 | 26.67° C | 86% | 1007.9 hPa | 0 mm | - | 384 W/m² | - |
| 1778002845 | 26.67° C | 87% | 1007.5 hPa | 0 mm | - | 416 W/m² | - |
| 1778002537 | 26.11° C | 88% | 1008 hPa | 0 mm | - | 406 W/m² | - |
| 1778002234 | 26.11° C | 88% | 1007.9 hPa | 0 mm | - | 414 W/m² | - |
| 1778001932 | 25.56° C | 89% | 1007.9 hPa | 0 mm | - | 406 W/m² | - |
| 1778001628 | 25.56° C | 89% | 1007.9 hPa | 0 mm | - | 179 W/m² | - |
| 1778001323 | 25.56° C | 88% | 1008 hPa | 0 mm | - | 142 W/m² | - |
| 1778001020 | 26.11° C | 88% | 1007.9 hPa | 0 mm | - | 141 W/m² | - |
| 1778000717 | 26.11° C | 88% | 1008 hPa | 0 mm | - | 182 W/m² | - |
| 1778000413 | 26.11° C | 88% | 1008 hPa | 0 mm | - | 378 W/m² | - |
| 1778000108 | 25.56° C | 89% | 1007.9 hPa | 0 mm | - | 242 W/m² | - |
| 1777999804 | 25.56° C | 88% | 1008.1 hPa | 0 mm | - | 131 W/m² | - |
| 1777999500 | 25.56° C | 89% | 1008 hPa | 0 mm | - | 144 W/m² | - |
| 1777999199 | 25.56° C | 89% | 1008.1 hPa | 0 mm | - | 177 W/m² | - |
| 1777998897 | 25.56° C | 89% | 1008.1 hPa | 0 mm | - | 237 W/m² | - |
| 1777998596 | 25.56° C | 90% | 1007.9 hPa | 0 mm | - | 155 W/m² | - |
| 1777998291 | 25.56° C | 90% | 1008.2 hPa | 0 mm | - | 235 W/m² | - |
| 1777997988 | 25° C | 91% | 1008 hPa | 0 mm | - | 198 W/m² | - |
| 1777997685 | 25° C | 91% | 1007.9 hPa | 0 mm | - | 263 W/m² | - |
| 1777997382 | 25° C | 92% | 1008.1 hPa | 0 mm | - | 188 W/m² | - |
* Rain latest hour (hover to see other rain measurements)
** Current wind speed in m/s (hover to see current wind gust speed)